www.pogodaiklimat.ru

АРХИВ ПОГОДЫ в Оклахоме-Сити

Время (UTC), дата Ветер
(напр.,м/с)
 
Видим.   Явления Облачность Т
(С)
Тd
(С)
f
(%)
Тe
(С)
Тes
(С)
Комфортность

P
(гПа)

Po
(гПа)
Тmin
(С)
Tmax
(С)
R
(мм)
SD
(см)
10:52 14.08 штиль  16 км    8/8 630 м
[средняя] 
+21.0  +20.0  94  +26  +26  душно  1012.4  967.0  +19.4  +20.6     
11:52 14.08 Ю  14 км    10/10 780 м  +21.1  +20.6  97  +26  +26  душно  1012.4  967.0         
12:52 14.08 ЮВ  16 км    10/10 870 м  +21.7  +21.1  96  +28  +28  душно  1012.7  967.3         
13:42 14.08 Ю  13 км    10/10 240 м  +22.0  +21.0  94  +28  +28  душно    967.3         
13:52 14.08 Ю  8 км  дымка  10/10 240 м  +22.8  +21.1  90  +30  +30  очень
душно 
  967.3         
14:12 14.08 Ю  8 км  дымка  10/10 240 м  +23.3  +21.1  87  +31  +31  очень
душно 
  967.3         
14:25 14.08 Ю  8 км  мгла  10/10 390 м  +23.9  +21.1  84  +30  +30  очень
душно 
  967.3         
14:52 14.08 ЮЗ  10 км  мгла  8/8 360 м  +24.4  +21.1  82  +31  +32  очень
душно 
1012.8  967.6         
15:15 14.08 ЮЗ  10 км  мгла  10/10 450 м  +25.0  +21.1  79  +32  +32  очень
душно 
  967.6         
15:52 14.08 Ю  10 км  мгла  10/10 480 м  +25.6  +21.7  79  +33  +33  очень
душно 
1012.7  967.6         
16:52 14.08 Ю  16 км    8/8 540 м  +27.0  +22.0  74  +35  +36  очень
душно 
1012.0  967.0  +20.6       
17:52 14.08 Ю  16 км    8/8 660 м  +28.3  +22.8  72  +38  +39  очень
душно 
1011.6  966.6         
18:14 14.08 Ю  16 км  гроза  8/8 720 м
[верхняя] 
+27.2  +22.2  74  +35  +37  очень
душно 
  966.3         
18:52 14.08 Ю  6
{10} 
16 км  гроза  8/8 570 м
[средняя верхняя] 
+26.0  +22.0  79  +34  +35  очень
душно 
1011.7  966.6         
19:09 14.08 Ю  16 км    8/5 570 м
[средняя верхняя] 
+27.2  +21.1  69  +34  +36  очень
душно 
  966.3         
19:52 14.08 ЮВ  16 км    8/5 870 м
[средняя верхняя] 
+27.8  +20.0  63  +34  +37  очень
душно 
1010.9           
20:18 14.08 ЮВ  16 км  гроза  8/5 1050 м
[средняя верхняя] 
+26.7  +20.6  69  +33  +36  очень
душно 
  965.7         
20:52 14.08 Ю  3 км  гроза с дождем, дымка  10/8 750 м
[средняя] 
            1011.0  965.7         
20:57 14.08 ЮЗ  9
{13} 
3 км  гроза с дождем, дымка  8/8 750 м  +23.3  +21.1  87  +31  +31  очень
душно 
  966.0         
21:01 14.08 ЮЗ  10
{17} 
2 км  гроза с дождем  10/10 750 м  +22.8  +20.0  84  +29  +29  очень
душно 
           
21:14 14.08 СВ  9
{13} 
800 м  гроза с сильным дождем  10/8 780 м
[средняя] 
+22.2  +18.9  82  +28  +28  душно             
21:16 14.08 СВ  10
{13} 
800 м  гроза с сильным градом и дождем  10/8 780 м
[средняя] 
+21.7  +17.2  76  +26  +26  душно             
21:19 14.08 СВ  8
{13} 
800 м  гроза с сильным градом и дождем  10/8 660 м
[средняя] 
+21.7  +15.6  68  +25  +25  комфорт             
21:28 14.08 З  6
{10} 
2 км  гроза с сильным дождем, дымка  10/8 660 м
[средняя] 
+22.2  +20.0  87  +28  +28  душно    966.0         
21:43 14.08 ЮВ  1 км  гроза с сильным дождем, дымка  10/10 780 м  +23.9  +22.2  90  +31  +31  очень
душно 
           
21:46 14.08 ЮВ  1 км  гроза с сильным градом и дождем, дымка  10/10 780 м  +25.0  +23.0  89  +33  +33  очень
душно 
           
21:52 14.08 В  1 км  гроза с сильным градом и дождем, дымка  10/10 870 м  +25.0  +22.8  88  +33  +33  очень
душно 
1010.1  965.0         
22:02 14.08 В  1 км  TSGS  10/10 750 м  +23.0  +19.0  78  +29  +29  очень
душно 
  965.7         
22:06 14.08 В  2 км  гроза с сильным дождем  10/10 750 м  +23.3  +20.0  82  +30  +30  очень
душно 
  965.7         
22:26 14.08 Ю  6
{18} 
1 км  гроза с сильным дождем, дымка  10/10 540 м  +23.3  +22.2  94  +32  +32  очень
душно 
  965.0         
22:38 14.08 Ю  6
{11} 
2 км  гроза с сильным дождем, дымка  10/10 540 м  +23.9  +22.2  90  +31  +31  очень
душно 
           
22:52 14.08 Ю  3 км  гроза со слабым дождем, дымка  10/10 540 м  +24.0  +23.0  94  +32  +32  очень
душно 
1010.1  965.0  +21.7  +28.9     
23:01 14.08 ЮЗ  1 км  гроза с сильным дождем, дымка  10/10 540 м  +23.9  +22.8  94  +32  +32  очень
душно 
           
23:07 14.08 ЮВ  5
{8} 
1 км  гроза с сильным дождем и градом, дымка  5/5 180 м  +23.3  +21.7  91  +32  +32  очень
душно 
  965.3         
23:14 14.08 ЮВ  9
{14} 
2 км  гроза с сильным дождем, дымка  10/10 180 м  +22.8  +19.4  81  +29  +29  очень
душно 
           
23:27 14.08 СЗ  11
{14} 
5 км  гроза со слабым дождем, дымка  10/10 180 м  +23.0  +20.0  83  +30  +30  очень
душно 
           
23:42 14.08 СЗ  8
{14} 
2 км  гроза с сильным дождем, дымка  10/10 180 м  +20.6  +19.4  93  +24  +24  комфорт    965.7         
23:46 14.08 С  14
{18} 
1 км  гроза с сильным дождем, дымка  10/10 180 м  +21.0  +20.0  94  +25  +25  комфорт             
23:52 14.08 С  16
{21} 
400 м  гроза с сильным дождем  10/10 270 м  +21.1  +20.6  97  +26  +26  душно  1011.0           
23:57 14.08 С  13
{21} 
400 м  гроза с сильным дождем  10/10 270 м  +20.6  +20.6  100  +24  +24  комфорт             
00:17 15.08 СВ  14
{22} 
400 м  гроза с сильным дождем  10/10 270 м  +20.6  +19.4  93  +24  +24  комфорт             
00:23 15.08 СВ  15
{22} 
1 км  гроза с сильным дождем, дымка  10/10 270 м  +21.1  +18.3  84  +25  +25  комфорт             
00:28 15.08 СВ  13
{21} 
3 км  гроза с сильным дождем, дымка  10/5 270 м
[средняя] 
+21.7  +19.4  87  +27  +27  душно             
00:39 15.08 нст  8 км  гроза со слабым дождем, дымка  10/5 1170 м
[средняя] 
+22.8  +20.6  87  +30  +30  очень
душно 
           
00:52 15.08 ЮЗ  9
{11} 
11 км  гроза со слабым дождем  8/5 1170 м
[средняя] 
+22.8  +20.0  84  +29  +29  очень
душно 
           
01:04 15.08 Ю  5 км  гроза с сильным дождем, дымка  10/8 1140 м
[средняя] 
+22.0  +21.0  94  +28  +28  душно             
01:52 15.08 ЮВ  16 км  гроза, слабый дождь  10/5 1200 м
[средняя] 
+20.6  +18.3  87  +25  +25  комфорт  1011.3        48.0   
02:52 15.08 ЮВ  16 км  слабый дождь  10/5 1200 м
[средняя] 
+20.0  +18.3  90  +23  +23  комфорт  1011.9  966.6         

 

Местоположение метеостанции Will Rogers World Airport: широта 35.3886 долгота -97.6003 высота над уровнем моря 394 м.

В архиве по умолчанию представлена погода в Оклахоме-Сити за последние 1-2 суток. Обновление информации о фактической погоде в базе происходит ежечасно! Архивные данные за месяц целиком и за предыдущие месяцы Вы можете получить, выбрав интересующий диапазон дат из раскрывающегося списка и нажав кнопку "Ввод!".

Внимание! Архив погоды МЕТАР в базе сайта в настоящее время начинается c 1 января 2013 г. Нет смысла пытаться выбрать более раннюю дату.

Внимание! Время в таблицах - всемирное. Для получения местного времени необходимо прибавить поправку, которая в Оклахоме-Сити равна -6 ч.

Ветер - указаны скорость ветра в м/с и направление, откуда дует ветер: С - северный, СВ - северо-восточный, В - восточный, ЮВ - юго-восточный, Ю - южный, ЮЗ - юго-западный, З - западный, СЗ - северо-западный.
Видимость - горизонтальная дальность видимости в метрах или километрах. При видимости от 1 до 10 км при отсутствии осадков обычно наблюдается дымка, при ухудшении видимости до 1 км и менее - туман. В сухую погоду видимость может ухудшаться дымом, пылью или мглою.
Атмосферные явления - указаны явления, наблюдавшиеся в указанный момент времени.
Облачность - указаны через наклонную черту верхняя и нижняя облачность в баллах и высота нижней границы облаков в метрах. Внимание: облачность, как и прочие метеорологические величины в США измеряются автоматическими метеостанциями. Указанные значения в баллах носят условный характер и показывают процент времени, в течение которого, в среднем, лазерный луч высотомера отражался от облаков обратно.
T - Температура воздуха - температура, измеренная на высоте 2 м над землей.
Td - Температура точки росы - температура, при понижении до которой содержащийся в воздухе водяной пар достигнет насыщения.
f - Относительная влажность воздуха - влажноcть воздуха, измеренная на высоте 2 м над землей.
Te - Эффективная температура - температура, которую ощущает одетый по сезону человек в тени. Характеристика душности погоды. При расчете учитывается влияние влажности воздуха и скорости ветра на теплоощущения человека.
Tes - Эффективная температура на солнце - температура, которую ощущает человек, с поправкой на солнечный нагрев. Характеристика знойности погоды. Зависит от высоты солнца над горизонтом, облачности и скорости ветра. Ночью, в пасмурную погоду, а также при ветре 12 м/с и более поправка равна нулю.
P - Атмосферное давление - приведенное к уровню моря атмосферное давление.
Po - Атмосферное давление - измеренное на уровне метеостанции атмосферное давление.
Tmin - Минимальная температура - минимум температуры воздуха на высоте 2 м над землей.
Tmax - Максимальная температура - максимум температуры воздуха на высоте 2 м над землей.
R - Количество осадков - Количество выпавших осадков за 3 или 6 часов, мм.
SD - Снежный покров - Высота снежного покрова, см.